1498474801.17,23106,21.56,73946.8,12.49,4.63,3.03,0,*44
1498474802.36,23107,21.56,73946.5,12.55,4.15,2.61,0,*4C
1498474803.61,23108,21.56,73944.8,12.57,3.49,1.93,0,*41
1498474804.79,23109,21.56,73942.3,12.59,3.29,1.83,0,*49
1498474806.0,23110,21.56,73946.3,12.61,3.33,1.75,0,*48
1498474807.22,23111,21.56,73944.8,12.65,4.15,2.51,0,*4B
1498474808.46,23112,21.56,73946.5,12.67,4.19,2.51,0,*46
1498474809.64,23113,21.56,73944.5,12.69,4.07,2.31,0,*40
1498474810.88,23114,21.56,73948.8,12.75,3.93,2.17,0,*44
1498474812.11,23115,21.56,73946.3,12.75,4.27,2.47,0,*48
1498474813.31,23116,21.56,73950.8,12.79,4.45,2.65,0,*43
1498474814.52,23117,21.56,73950.3,12.83,4.27,2.35,0,*46
1498474815.75,23118,21.56,73944.3,12.87,4.89,2.89,0,*4E
1498474816.93,23119,21.56,73942.5,12.95,5.63,3.63,0,*4C
1498474818.19,23120,21.56,73946.8,12.97,5.51,3.45,0,*41
1498474819.42,23121,21.56,73942.5,13.01,5.45,3.45,0,*4B
1498474820.63,23122,21.56,73946.8,13.07,5.41,3.23,0,*4A
1498474821.8,23123,21.56,73942.5,13.11,6.07,3.85,0,*41
1498474822.98,23124,21.56,73946.8,13.19,6.79,4.49,0,*40
1498474824.21,23125,21.56,73942.5,13.25,6.91,4.63,0,*40
1498474825.46,23126,21.56,73944.8,13.29,6.73,4.31,0,*44
1498474826.7,23127,21.56,73946.3,13.37,7.27,4.93,0,*42
1498474827.91,23128,21.56,73944.5,13.45,7.61,5.11,0,*41
1498474829.09,23129,21.56,73944.5,13.49,7.37,4.85,0,*43
1498474830.32,23130,21.56,73946.3,13.55,5.63,3.03,0,*4C
1498474831.56,23131,21.56,73948.8,13.63,6.13,3.37,0,*4B
1498474832.76,23132,21.56,73946.0,13.65,5.15,2.27,0,*4B
1498474834.0,23133,21.56,73944.3,13.67,3.75,0.79,0,*71
1498474835.19,23134,21.56,73944.0,13.71,3.63,0.41,0,*7D
1498474836.41,23135,21.56,73940.3,13.71,3.53,0.33,0,*7A
1498474837.61,23136,21.56,73944.8,13.71,3.63,0.33,0,*7A
1498474838.84,23137,21.56,73946.8,13.73,3.45,0.09,0,*44
1498474840.05,23138,21.56,73944.5,13.75,2.69,-0.73,0,*52
1498474841.29,23139,21.56,73944.3,13.75,3.37,-0.23,0,*5C
1498474842.52,23140,21.56,73946.8,13.79,3.53,-0.23,0,*5C
1498474843.73,23141,21.56,73944.8,13.79,3.33,-0.33,0,*5A
1498474844.94,23142,21.56,73946.5,13.79,3.33,-0.41,0,*5C
1498474846.18,23143,21.56,73948.3,13.81,3.53,-0.41,0,*5C
1498474847.41,23144,21.56,73942.5,13.85,3.49,-0.61,0,*56
1498474848.59,23145,21.56,73946.0,13.87,2.91,-1.25,0,*60
1498474849.82,23146,21.56,73936.3,13.87,3.19,-1.01,0,*64
1498474851.04,23147,21.56,73940.3,13.89,3.07,-1.29,0,*6E
1498474852.23,23148,21.56,73940.8,13.93,2.95,-1.63,0,*6E
1498474853.45,23149,21.56,73944.0,13.93,3.11,-1.51,0,*63
1498474854.71,23150,21.56,73944.8,13.95,2.21,-2.59,0,*64
1498474855.95,23151,21.56,73942.8,13.93,1.51,-3.43,0,*6D
1498474857.18,23152,21.56,73944.8,13.95,0.75,-4.37,0,*5B
1498474858.44,23153,21.56,73940.8,13.91,0.51,-4.73,0,*58
1498474859.67,23154,21.56,73944.8,13.91,0.95,-4.25,0,*54
1498474860.89,23155,21.56,73942.5,13.89,1.29,-4.09,0,*64
1498474862.12,23156,21.56,73946.3,13.89,1.17,-4.25,0,*64
1498474863.35,23157,21.56,73944.0,13.89,0.67,-4.85,0,*59
1498474864.59,23158,21.56,73944.0,13.87,0.91,-4.77,0,*5C
1498474865.82,23159,21.56,73942.3,13.87,0.83,-4.93,0,*54
1498474867.04,23160,21.56,73942.0,13.87,1.37,-4.41,0,*6F
1498474868.31,23161,21.56,73944.0,13.85,0.91,-5.15,0,*51
1498474869.54,23162,21.56,73946.5,13.85,0.43,-5.61,0,*5E
1498474870.78,23163,21.56,73948.0,13.79,0.83,-5.27,0,*52
1498474871.97,23164,21.56,73948.3,13.79,-0.07,-6.59,0,*4E
1498474873.21,23165,21.56,73946.3,13.77,-1.47,-8.17,0,*40
1498474874.45,23166,21.56,73944.8,13.77,-1.25,-7.95,0,*42
1498474875.7,23167,21.56,73946.0,13.71,-1.05,-7.99,0,*4B
1498474876.95,23168,21.56,73946.5,13.69,-0.97,-7.87,0,*78
1498474878.17,23169,21.56,73946.0,13.67,-1.35,-8.45,0,*4F
1498474879.41,23170,21.56,73946.0,13.65,-1.63,-8.81,0,*4E
1498474880.6,23171,21.56,73948.5,13.59,-1.67,-9.31,0,*4E
1498474881.81,23172,21.56,73946.8,13.59,-0.45,-7.77,0,*70
1498474883.06,23173,21.56,73950.5,13.55,-1.21,-8.51,0,*45
1498474884.29,23174,21.56,73946.0,13.55,-1.09,-8.59,0,*40
1498474885.51,23175,21.56,73944.0,13.53,-2.11,-9.89,0,*41
1498474886.72,23176,21.56,73946.5,13.49,-2.31,-10.15,0,*76
1498474887.94,23177,21.56,73942.3,13.47,-2.79,-10.89,0,*70
1498474889.19,23178,21.56,73944.8,13.43,-2.99,-11.07,0,*72
1498474890.38,23179,21.56,73946.8,13.37,-2.83,-11.01,0,*7D
1498474891.61,23180,21.56,73946.3,13.33,-2.71,-10.93,0,*78
1498474892.83,23181,21.56,73944.8,13.33,-3.15,-11.55,0,*71
1498474894.06,23182,21.56,73942.3,13.29,-2.63,-11.01,0,*78
1498474895.28,23183,21.56,73944.0,13.27,-2.83,-11.45,0,*79
1498474896.48,23184,21.56,73946.8,13.25,-2.35,-10.93,0,*7B
1498474897.67,23185,21.56,73946.8,13.23,-2.39,-11.23,0,*7A
1498474898.9,23186,21.56,73946.8,13.21,-3.15,-12.25,0,*71
1498474900.14,23187,21.56,73940.3,13.17,-3.07,-12.15,0,*75
1498474901.37,23188,21.56,73942.5,13.13,-2.35,-11.45,0,*78
1498474902.62,23189,21.56,73942.3,13.11,-2.75,-12.07,0,*7A
1498474903.83,23190,21.56,73940.8,13.11,-2.39,-11.81,0,*77
1498474905.11,23191,21.56,73940.0,13.09,-2.55,-12.07,0,*78
1498474906.37,23192,21.56,73944.5,13.07,-1.39,-10.71,0,*7F
1498474907.59,23193,21.56,73944.0,13.09,-1.59,-11.23,0,*70
1498474908.82,23194,21.56,73944.8,13.07,-2.79,-12.57,0,*78
1498474910.04,23195,21.56,73944.8,13.03,-2.99,-13.01,0,*71
1498474911.26,23196,21.56,73942.8,13.03,-2.51,-12.47,0,*75
1498474912.54,23197,21.56,73944.0,13.01,-2.03,-11.97,0,*7F
1498474913.83,23198,21.56,73946.5,13.01,-1.87,-11.89,0,*70
1498474915.03,23199,21.56,73946.5,12.99,-2.35,-12.47,0,*7A
1498474916.29,23200,21.56,73946.0,12.99,-2.63,-12.83,0,*72
1498474917.52,23201,21.56,73946.5,12.99,-1.91,-12.21,0,*75
1498474918.74,23202,21.56,73944.5,12.99,-2.91,-13.33,0,*77
1498474919.95,23203,21.56,73950.0,12.99,-2.39,-12.97,0,*7B
1498474921.17,23204,21.56,73946.5,12.97,-1.79,-12.43,0,*7C
1498474922.4,23205,21.56,73944.3,12.97,-1.79,-12.43,0,*7D
1498474923.63,23206,21.56,73950.0,12.97,-2.39,-13.23,0,*7E
1498474924.85,23207,21.56,73944.5,12.95,-2.67,-13.55,0,*77
1498474926.07,23208,21.56,73948.8,12.95,-2.83,-14.01,0,*74
1498474927.27,23209,21.56,73946.3,12.95,-3.07,-14.15,0,*7D
1498474928.52,23210,21.56,73944.8,12.91,-2.47,-13.55,0,*77
1498474929.79,23211,21.56,73944.0,12.91,-2.63,-13.87,0,*7F
1498474931.01,23212,21.56,73946.5,12.91,-2.31,-13.43,0,*73
1498474932.25,23213,21.56,73948.0,12.91,-3.23,-14.55,0,*70
1498474933.47,23214,21.56,73948.5,12.91,-3.35,-14.69,0,*7F
1498474934.7,23215,21.56,73950.3,12.89,-3.11,-14.47,0,*7D
1498474935.9,23216,21.56,73950.8,12.89,-2.91,-14.23,0,*75
1498474937.1,23217,21.56,73948.8,12.89,-3.23,-14.65,0,*7E
1498474938.36,23218,21.56,73946.5,12.87,-3.35,-14.97,0,*75
1498474939.58,23219,21.56,73948.8,12.85,-3.19,-14.79,0,*78
1498474940.8,23220,21.56,73944.0,12.89,-2.67,-14.19,0,*70
1498474942.0,23221,21.56,73944.0,12.89,-3.87,-15.63,0,*72
1498474943.24,23222,21.56,73946.8,12.89,-3.63,-15.25,0,*79
1498474944.49,23223,21.56,73948.0,12.87,-3.55,-15.15,0,*70
1498474945.76,23224,21.56,73944.3,12.87,-3.51,-15.21,0,*74
1498474946.99,23225,21.63,73948.3,12.87,-3.91,-15.63,0,*7F
1498474948.25,23226,21.56,73950.0,12.87,-4.89,-16.75,0,*76
1498474949.48,23227,21.56,73946.8,12.87,-4.93,-16.89,0,*7F
1498474950.69,23228,21.56,73946.5,12.85,-4.85,-16.55,0,*74
1498474951.94,23229,21.56,73946.5,12.85,-5.11,-17.03,0,*7B
1498474953.18,23230,21.56,73948.5,12.83,-4.53,-16.23,0,*71
1498474954.39,23231,21.56,73948.3,12.81,-3.35,-14.89,0,*77
1498474955.66,23232,21.56,73950.0,12.83,-2.59,-14.01,0,*7D
1498474956.87,23233,21.56,73952.3,12.87,-2.79,-14.11,0,*7B
1498474958.09,23234,21.56,73948.3,12.89,-2.15,-13.37,0,*7B
1498474959.32,23235,21.56,73950.3,12.95,-1.83,-13.15,0,*7B
1498474960.57,23236,21.56,73948.5,12.97,-1.21,-12.15,0,*73
1498474961.77,23237,21.56,73948.0,13.03,-0.57,-11.45,0,*48
1498474962.99,23238,21.56,73950.8,13.09,-0.15,-10.89,0,*4A
1498474964.23,23239,21.56,73950.0,13.13,0.05,-10.63,0,*58
1498474965.47,23240,21.56,73948.3,13.23,0.17,-10.67,0,*62
1498474966.74,23241,21.56,73948.5,13.27,-1.09,-11.89,0,*75
1498474967.99,23242,21.56,73946.0,13.33,-1.13,-11.93,0,*73
1498474969.23,23243,21.56,73948.3,13.37,-0.97,-11.77,0,*41
1498474970.46,23244,21.56,73950.0,13.45,-1.39,-12.21,0,*76
1498474971.71,23245,21.56,73944.5,13.49,-1.43,-12.07,0,*72
1498474972.91,23246,21.56,73944.5,13.53,-1.59,-12.39,0,*7C
1498474974.19,23247,21.56,73944.5,13.57,-1.13,-11.63,0,*7B
1498474975.39,23248,21.56,73942.3,13.63,-1.63,-12.21,0,*71
1498474976.62,23249,21.56,73942.8,13.67,-1.67,-12.07,0,*74
1498474977.82,23250,21.56,73940.8,13.71,-1.63,-12.03,0,*7B
1498474979.07,23251,21.56,73942.3,13.75,-1.83,-12.07,0,*74
1498474980.3,23252,21.56,73942.8,13.81,-2.15,-12.39,0,*7D
1498474981.54,23253,21.56,73938.8,13.85,-2.43,-12.57,0,*73
1498474982.74,23254,21.63,73944.5,13.89,-2.27,-12.39,0,*72
1498474984.02,23255,21.56,73940.8,13.91,-2.55,-12.57,0,*77
1498474985.27,23256,21.56,73942.0,13.97,-2.59,-12.53,0,*7A
1498474986.49,23257,21.56,73940.8,14.01,-2.79,-12.57,0,*75
1498474987.72,23258,21.56,73944.3,14.05,-2.99,-12.79,0,*7C
1498474988.92,23259,21.56,73944.0,14.09,-3.75,-13.43,0,*7A
1498474990.16,23260,21.56,73946.5,14.11,-3.23,-12.83,0,*77
1498474991.4,23261,21.56,73944.8,14.17,-2.71,-12.11,0,*7D
1498474992.67,23262,21.56,73950.3,14.19,-2.55,-11.85,0,*78
1498474993.93,23263,21.56,73950.0,14.25,-2.79,-11.93,0,*7F
1498474995.15,23264,21.56,73948.8,14.27,-3.03,-12.07,0,*78
1498474996.4,23265,21.56,73946.3,14.33,-2.59,-11.45,0,*77
1498474997.63,23266,21.56,73950.0,14.39,-2.95,-11.63,0,*7A
1498474998.86,23267,21.56,73950.5,14.43,-2.95,-11.67,0,*72
1498475000.1,23268,21.56,73946.0,14.45,-3.75,-12.39,0,*7C
1498475001.35,23269,21.56,73946.0,14.49,-4.29,-12.79,0,*7B
1498475002.58,23270,21.56,73944.3,14.53,-4.33,-12.61,0,*7A
1498475003.82,23271,21.56,73946.8,14.55,-4.45,-12.71,0,*7D
1498475005.07,23272,21.56,73950.0,14.59,-4.37,-12.35,0,*77
1498475006.3,23273,21.63,73948.0,14.63,-4.13,-12.03,0,*7C
1498475007.52,23274,21.56,73948.5,14.67,-4.57,-12.39,0,*76
1498475008.75,23275,21.56,73944.3,14.69,-5.47,-13.29,0,*79
1498475009.97,23276,21.56,73946.3,14.71,-5.47,-13.15,0,*7C
1498475011.24,23277,21.56,73948.8,14.75,-5.81,-13.37,0,*73
1498475012.49,23278,21.56,73946.5,14.75,-6.01,-13.33,0,*73
1498475013.72,23279,21.56,73948.0,14.77,-5.47,-12.53,0,*76
1498475014.97,23280,21.56,73944.0,14.81,-4.81,-11.67,0,*76
1498475016.19,23281,21.56,73946.5,14.83,-4.61,-11.23,0,*7B
1498475017.44,23282,21.56,73950.8,14.85,-5.23,-11.73,0,*7C
1498475018.67,23283,21.56,73948.8,14.89,-5.07,-11.41,0,*76
1498475019.89,23284,21.56,73950.8,14.93,-4.89,-11.11,0,*78
1498475021.14,23285,21.56,73948.5,14.99,-4.57,-10.79,0,*7F
1498475022.37,23286,21.56,73952.3,15.03,-5.43,-11.45,0,*74
1498475023.6,23287,21.56,73952.5,15.03,-5.39,-11.11,0,*79
1498475024.82,23288,21.56,73948.8,15.07,-4.57,-10.23,0,*7B
1498475026.09,23289,21.56,73950.8,15.11,-4.93,-10.41,0,*71
1498475027.34,23290,21.56,73950.8,15.15,-4.73,-10.09,0,*7F
1498475028.59,23291,21.56,73954.3,15.21,-5.31,-10.53,0,*71
1498475029.84,23292,21.56,73958.3,15.25,-6.39,-11.51,0,*7E
1498475031.09,23293,21.56,73954.3,15.25,-6.31,-11.07,0,*74
1498475032.34,23294,21.56,73952.0,15.29,-5.77,-10.53,0,*7E
1498475033.57,23295,21.56,73954.5,15.33,-6.09,-10.53,0,*7E
1498475034.77,23296,21.56,73950.3,15.35,-6.01,-10.23,0,*74
1498475036.02,23297,21.56,73950.0,15.37,-6.23,-10.31,0,*74
1498475037.22,23298,21.56,73950.3,15.39,-7.19,-11.23,0,*7F
1498475038.42,23299,21.63,73952.3,15.43,-7.53,-11.41,0,*79
1498475039.69,23300,21.63,73948.3,15.45,-7.65,-11.37,0,*7A
1498475040.93,23301,21.56,73946.0,15.47,-7.77,-11.37,0,*7A
1498475042.13,23302,21.63,73950.5,15.49,-8.17,-11.45,0,*7B
1498475043.36,23303,21.56,73946.0,15.49,-7.49,-10.63,0,*7B
1498475044.64,23304,21.56,73944.3,15.51,-7.73,-10.75,0,*7B
1498475045.87,23305,21.56,73946.5,15.53,-7.83,-10.67,0,*74
1498475047.12,23306,21.56,73946.0,15.55,-8.63,-11.37,0,*74
1498475048.35,23307,21.63,73948.0,15.55,-8.45,-10.89,0,*75
1498475049.58,23308,21.56,73944.3,15.59,-7.87,-10.15,0,*72
1498475050.83,23309,21.63,73944.5,15.61,-9.37,-11.55,0,*78
1498475052.02,23310,21.56,73946.0,15.61,-9.31,-11.41,0,*73
1498475053.27,23311,21.56,73940.0,15.63,-9.89,-11.93,0,*7C
1498475054.52,23312,21.56,73940.5,15.63,-9.75,-11.55,0,*76
1498475055.76,23313,21.63,73944.0,15.63,-9.89,-11.55,0,*74
1498475057.01,23314,21.63,73946.5,15.63,-10.09,-11.51,0,*47
1498475058.29,23315,21.56,73946.3,15.67,-9.41,-10.63,0,*76
1498475059.5,23316,21.56,73948.3,15.69,-8.45,-9.61,0,*44
1498475060.73,23317,21.56,73944.3,15.69,-9.49,-10.31,0,*75
1498475061.95,23318,21.56,73944.0,15.71,-9.67,-10.45,0,*7C
1498475063.19,23319,21.56,73946.3,15.71,-10.05,-10.71,0,*46
1498475064.44,23320,21.63,73948.0,15.71,-11.15,-11.55,0,*4B
1498475065.68,23321,21.56,73944.5,15.71,-9.27,-9.61,0,*4C
1498475066.92,23322,21.56,73946.8,15.73,-9.49,-9.49,0,*4F
1498475068.11,23323,21.56,73948.3,15.73,-9.31,-9.23,0,*4D
1498475069.32,23324,21.56,73948.0,15.77,-9.67,-9.53,0,*4A
1498475070.55,23325,21.56,73944.0,15.77,-11.67,-11.41,0,*48
1498475071.77,23326,21.56,73942.3,15.75,-12.43,-12.03,0,*49
1498475072.99,23327,21.56,73942.5,15.75,-13.15,-12.47,0,*4A
1498475074.24,23328,21.63,73950.8,15.73,-13.61,-12.83,0,*48
1498475075.52,23329,21.56,73944.8,15.71,-12.71,-11.85,0,*4E
1498475076.72,23330,21.56,73944.5,15.69,-12.39,-11.41,0,*4B
1498475077.94,23331,21.56,73944.8,15.67,-12.43,-11.19,0,*44
1498475079.2,23332,21.56,73944.0,15.67,-11.73,-10.35,0,*48
1498475080.46,23333,21.56,73946.8,15.67,-11.77,-10.09,0,*42
1498475081.7,23334,21.63,73948.5,15.67,-10.79,-8.97,0,*74
1498475082.92,23335,21.63,73950.3,15.69,-9.27,-7.35,0,*4F
1498475084.14,23336,21.56,73946.0,15.69,-8.25,-6.27,0,*4D
1498475085.32,23337,21.56,73946.0,15.73,-8.33,-6.01,0,*44
1498475086.56,23338,21.63,73948.5,15.77,-7.99,-5.61,0,*45
1498475087.77,23339,21.56,73946.5,15.81,-8.67,-6.13,0,*45
1498475088.98,23340,21.63,73948.5,15.83,-7.99,-5.47,0,*45
1498475090.22,23341,21.63,73950.3,15.91,-7.61,-5.11,0,*43
1498475091.43,23342,21.63,73954.5,15.93,-9.19,-6.89,0,*41
1498475092.67,23343,21.56,73950.0,15.93,-11.73,-9.19,0,*73
1498475093.88,23344,21.56,73946.5,15.91,-12.47,-9.49,0,*77
1498475095.15,23345,21.56,73944.5,15.89,-12.83,-9.61,0,*7D
1498475096.43,23346,21.63,73948.8,15.85,-14.05,-10.79,0,*4B
1498475097.66,23347,21.56,73940.8,15.79,-13.73,-10.09,0,*48
1498475098.9,23348,21.63,73946.5,15.79,-12.43,-9.41,0,*71
1498475100.12,23349,21.63,73948.5,15.77,-14.61,-11.33,0,*44
1498475101.35,23350,21.63,73948.3,15.73,-14.51,-11.01,0,*4A
1498475102.58,23351,21.63,73950.8,15.69,-14.51,-10.89,0,*41
1498475103.82,23352,21.63,73950.3,15.67,-13.15,-9.57,0,*70
1498475105.06,23353,21.63,73950.0,15.63,-13.93,-10.27,0,*44
1498475106.32,23354,21.56,73950.8,15.59,-14.01,-10.15,0,*47
1498475107.56,23355,21.56,73948.8,15.57,-14.05,-9.97,0,*7E
1498475108.75,23356,21.56,73946.8,15.53,-12.89,-8.67,0,*75
1498475110.0,23357,21.56,73944.0,15.51,-12.53,-8.29,0,*7B
1498475111.23,23358,21.63,73944.3,15.49,-14.01,-9.67,0,*77
1498475112.43,23359,21.56,73942.5,15.49,-14.23,-9.75,0,*75
1498475113.66,23360,21.56,73940.3,15.45,-14.33,-9.79,0,*7E
1498475114.88,23361,21.56,73936.5,15.45,-14.29,-9.71,0,*7C
1498475116.08,23362,21.56,73940.8,15.39,-14.37,-9.67,0,*7C
1498475117.34,23363,21.56,73942.5,15.35,-13.83,-9.11,0,*78
1498475118.56,23364,21.56,73942.3,15.31,-12.65,-7.83,0,*77
1498475119.78,23365,21.56,73944.0,15.31,-11.19,-6.27,0,*71
1498475121.02,23366,21.56,73942.3,15.33,-9.67,-4.81,0,*4E
1498475122.24,23367,21.56,73940.8,15.35,-8.45,-3.55,0,*46
1498475123.43,23368,21.56,73940.3,15.39,-7.87,-2.95,0,*49
1498475124.63,23369,21.56,73944.0,15.43,-9.19,-4.37,0,*42
1498475125.82,23370,21.63,73944.8,15.43,-10.85,-5.97,0,*7C
1498475127.04,23371,21.56,73940.5,15.39,-11.97,-7.11,0,*7E
1498475128.26,23372,21.63,73944.0,15.39,-11.67,-6.89,0,*72
1498475129.52,23373,21.63,73942.3,15.35,-12.15,-7.27,0,*7C
1498475130.71,23374,21.56,73944.5,15.35,-12.43,-7.49,0,*70
1498475131.93,23375,21.56,73942.0,15.31,-12.61,-7.53,0,*7E
1498475133.18,23376,21.56,73940.8,15.29,-12.53,-7.49,0,*7E
1498475134.4,23377,21.63,73940.8,15.27,-12.47,-7.39,0,*73
1498475135.63,23378,21.63,73948.0,15.23,-11.37,-6.47,0,*74
1498475136.86,23379,21.63,73944.8,15.23,-10.85,-5.85,0,*70
1498475138.08,23380,21.63,73948.3,15.21,-11.15,-6.13,0,*70
1498475139.31,23381,21.56,73946.0,15.17,-10.45,-5.35,0,*77
1498475140.55,23382,21.56,73946.5,15.17,-9.67,-4.73,0,*4F
1498475141.8,23383,21.63,73948.8,15.17,-9.79,-4.85,0,*48
1498475143.02,23384,21.63,73952.5,15.17,-9.23,-4.33,0,*4D
1498475144.26,23385,21.56,73950.5,15.15,-8.41,-3.59,0,*40
1498475145.48,23386,21.63,73950.0,15.17,-8.59,-3.83,0,*4F
1498475146.72,23387,21.63,73952.5,15.17,-8.67,-4.01,0,*4E
1498475147.94,23388,21.56,73950.0,15.17,-8.97,-4.37,0,*4B
1498475149.21,23389,21.56,73948.8,15.15,-9.49,-4.89,0,*4F
1498475150.44,23390,21.56,73944.8,15.13,-9.15,-4.61,0,*4E
1498475151.69,23391,21.63,73952.0,15.13,-9.15,-4.73,0,*4C
1498475152.93,23392,21.56,73950.5,15.11,-8.37,-4.01,0,*49
1498475154.18,23393,21.63,73954.0,15.11,-7.43,-3.35,0,*44
1498475155.44,23394,21.63,73952.5,15.11,-6.63,-2.63,0,*42
1498475156.63,23395,21.63,73950.0,15.13,-7.23,-3.19,0,*48
1498475157.84,23396,21.56,73950.8,15.13,-7.01,-3.11,0,*43
1498475159.03,23397,21.63,73948.8,15.13,-6.89,-2.87,0,*4D
1498475160.22,23398,21.56,73944.5,15.13,-6.05,-2.19,0,*41
1498475161.47,23399,21.63,73948.8,15.15,-6.47,-2.67,0,*49
1498475162.69,23400,21.63,73946.8,15.15,-6.73,-2.95,0,*44
1498475163.93,23401,21.63,73948.3,15.15,-6.93,-3.07,0,*41
1498475165.15,23402,21.63,73950.8,15.13,-6.39,-2.71,0,*44
1498475166.34,23403,21.63,73948.8,15.13,-6.05,-2.23,0,*4D
1498475167.56,23404,21.56,73946.3,15.17,-6.05,-2.35,0,*49
1498475168.8,23405,21.63,73946.5,15.17,-5.51,-1.83,0,*44
1498475170.05,23406,21.63,73948.8,15.15,-5.23,-1.67,0,*4A
1498475171.3,23407,21.63,73944.8,15.21,-4.99,-1.35,0,*4B
1498475172.53,23408,21.63,73946.0,15.17,-4.45,-0.97,0,*79
1498475173.74,23409,21.63,73944.5,15.23,-3.71,-0.33,0,*71
1498475175.01,23410,21.56,73946.5,15.25,-3.63,-0.23,0,*7D
1498475176.22,23411,21.56,73944.3,15.29,-3.39,-0.03,0,*4D
1498475177.46,23412,21.63,73944.3,15.29,-3.51,-0.19,0,*7B
1498475178.68,23413,21.63,73946.0,15.33,-3.79,-0.61,0,*74
1498475179.9,23414,21.56,73946.0,15.35,-3.95,-0.85,0,*7D
1498475181.12,23415,21.63,73948.0,15.35,-4.89,-1.71,0,*4C
1498475182.34,23416,21.63,73944.3,15.35,-4.49,-1.35,0,*43
1498475183.58,23417,21.63,73946.0,15.37,-4.73,-1.71,0,*49
1498475184.83,23418,21.63,73944.8,15.37,-5.23,-2.23,0,*46
1498475186.05,23419,21.63,73948.5,15.35,-5.51,-2.71,0,*47
1498475187.3,23420,21.63,73946.5,15.35,-4.89,-2.11,0,*4F
1498475188.52,23421,21.63,73948.3,15.35,-4.65,-1.91,0,*47
1498475189.74,23422,21.63,73944.5,15.35,-5.11,-2.31,0,*4F
1498475190.99,23423,21.63,73948.0,15.37,-4.21,-1.47,0,*4C
1498475192.23,23424,21.63,73946.8,15.33,-3.47,-0.77,0,*7A
1498475193.47,23425,21.63,73948.3,15.35,-3.47,-0.93,0,*77
1498475194.72,23426,21.56,73944.3,15.37,-3.55,-0.93,0,*75
1498475195.92,23427,21.63,73948.8,15.39,-2.95,-0.49,0,*70
1498475197.12,23428,21.63,73948.0,15.39,-2.55,-0.03,0,*4D
1498475198.33,23429,21.63,73944.5,15.45,-3.23,-0.81,0,*7D
1498475199.54,23430,21.63,73946.3,15.45,-4.53,-2.19,0,*46
1498475200.79,23431,21.63,73942.8,15.45,-4.33,-1.91,0,*42
1498475202.0,23432,21.63,73946.5,15.45,-3.19,-0.81,0,*7E
1498475203.21,23433,21.63,73944.0,15.45,-3.19,-0.73,0,*72
1498475204.42,23434,21.63,73944.5,15.45,-4.37,-2.19,0,*40
1498475205.64,23435,21.63,73944.0,15.47,-4.13,-1.91,0,*46
1498475206.87,23436,21.63,73944.0,15.45,-3.19,-0.97,0,*7D
1498475208.09,23437,21.56,73944.5,15.47,-3.19,-1.05,0,*44
1498475209.29,23438,21.63,73946.5,15.47,-4.21,-2.19,0,*49
1498475210.48,23439,21.63,73944.3,15.47,-3.23,-1.17,0,*40
1498475211.69,23440,21.63,73950.8,15.47,-1.67,0.51,0,*52
1498475212.94,23441,21.63,73950.8,15.51,-0.93,1.13,0,*59
1498475214.18,23442,21.63,73948.5,15.53,-1.39,0.47,0,*59
1498475215.44,23443,21.63,73950.3,15.55,-1.43,0.55,0,*50
1498475216.65,23444,21.63,73948.8,15.57,-1.55,0.71,0,*54
1498475217.88,23445,21.63,73944.3,15.59,-2.91,-0.89,0,*7A
1498475219.1,23446,21.63,73946.0,15.59,-4.29,-2.31,0,*4D
1498475220.35,23447,21.63,73946.3,15.59,-4.57,-2.67,0,*46
1498475221.59,23448,21.63,73950.3,15.59,-2.91,-1.09,0,*4E
1498475222.84,23449,21.63,73948.3,15.59,-3.55,-1.63,0,*4A
1498475224.06,23450,21.63,73942.8,15.59,-3.15,-1.21,0,*40
1498475225.28,23451,21.63,73946.5,15.57,-2.47,-0.69,0,*74
1498475226.5,23452,21.63,73946.0,15.59,-3.03,-1.21,0,*45
1498475227.74,23453,21.63,73944.5,15.61,-2.75,-1.01,0,*4D
1498475228.98,23454,21.56,73944.5,15.63,-3.51,-1.79,0,*40
1498475230.18,23455,21.63,73950.8,15.63,-0.61,0.97,0,*6D
1498475231.38,23456,21.63,73950.0,15.69,-0.69,1.17,0,*55
1498475232.59,23457,21.63,73948.3,15.71,-1.29,0.43,0,*58
1498475233.8,23458,21.63,73946.0,15.71,-2.39,-0.49,0,*72
1498475235.03,23459,21.63,73946.8,15.73,-1.01,0.71,0,*5F
1498475236.25,23460,21.63,73946.5,15.73,-0.89,0.67,0,*63
1498475237.45,23461,21.56,73944.5,15.77,-1.33,0.51,0,*53
1498475238.71,23462,21.63,73940.5,15.79,-1.83,-0.23,0,*7D
1498475239.94,23463,21.63,73946.5,15.79,-2.95,-1.21,0,*4B
1498475241.17,23464,21.63,73946.3,15.79,-1.83,-0.07,0,*4D
1498475242.4,23465,21.63,73948.3,15.81,-2.03,-0.29,0,*7C
1498475243.61,23466,21.63,73948.3,15.81,-2.39,-0.73,0,*79
1498475244.85,23467,21.63,73950.8,15.81,-1.87,-0.19,0,*72
1498475246.08,23468,21.63,73950.0,15.83,-0.89,0.47,0,*66
1498475247.31,23469,21.63,73948.3,15.85,-0.37,1.33,0,*56
1498475248.48,23470,21.63,73946.8,15.91,-0.19,1.41,0,*52
1498475249.7,23471,21.63,73950.3,15.93,-0.81,0.71,0,*62
1498475250.93,23472,21.63,73950.3,15.95,-1.01,0.51,0,*5C
1498475252.13,23473,21.63,73950.0,15.95,-0.15,1.37,0,*58
1498475253.34,23474,21.63,73950.3,15.99,-1.21,0.21,0,*53
1498475254.54,23475,21.63,73950.3,15.99,-0.73,0.67,0,*66
1498475255.77,23476,21.63,73948.3,16.01,0.25,1.63,0,*7C
1498475256.98,23477,21.63,73948.8,16.03,-0.81,0.59,0,*64
1498475258.22,23478,21.63,73944.5,16.05,-0.89,0.41,0,*6C
1498475259.42,23479,21.63,73948.0,16.07,-0.57,0.87,0,*66
1498475260.57,23480,21.63,73944.8,16.07,0.01,1.41,0,*45
1498475261.77,23481,21.63,73946.0,16.11,-0.07,1.17,0,*6B
1498475262.97,23482,21.63,73946.5,16.11,-0.03,1.21,0,*69
1498475264.18,23483,21.63,73948.0,16.13,-0.19,1.01,0,*53
1498475265.42,23484,21.63,73948.8,16.13,-0.45,0.71,0,*6B
1498475266.68,23485,21.63,73950.3,16.13,-0.27,0.83,0,*63
1498475267.9,23486,21.63,73948.8,16.17,0.09,1.17,0,*49
1498475269.13,23487,21.63,73946.0,16.19,0.13,1.21,0,*78
1498475270.34,23488,21.63,73946.0,16.19,-0.29,0.75,0,*63
1498475271.59,23489,21.63,73946.5,16.21,0.47,1.51,0,*7B
1498475272.85,23490,21.63,73944.8,16.21,0.91,1.89,0,*7D
1498475274.1,23491,21.63,73946.0,16.27,1.13,2.05,0,*46
1498475275.35,23492,21.63,73946.3,16.29,0.41,1.21,0,*78
1498475276.55,23493,21.63,73950.0,16.31,-0.33,0.67,0,*6B
1498475277.76,23494,21.63,73946.0,16.31,-0.41,0.41,0,*6D
1498475279.0,23495,21.63,73942.5,16.31,-1.83,-0.97,0,*75
1498475280.22,23496,21.63,73944.5,16.31,-1.79,-0.93,0,*77
1498475281.49,23497,21.63,73946.8,16.29,-1.87,-1.01,0,*44
1498475282.73,23498,21.63,73946.3,16.29,-1.35,-0.81,0,*7B
1498475283.96,23499,21.63,73944.3,16.27,-1.09,-0.49,0,*7F
1498475285.21,23500,21.63,73946.3,16.27,-1.83,-1.43,0,*47
1498475286.47,23501,21.63,73946.3,16.23,-2.03,-1.83,0,*45
1498475287.71,23502,21.63,73944.8,16.21,-2.83,-2.51,0,*40
1498475288.94,23503,21.63,73946.5,16.19,-1.91,-1.33,0,*4D
1498475290.16,23504,21.63,73950.3,16.19,-1.83,-1.25,0,*4E
1498475291.44,23505,21.63,73948.5,16.17,-2.03,-1.39,0,*47
1498475292.64,23506,21.63,73950.5,16.15,-0.49,0.25,0,*6B
1498475293.88,23507,21.63,73948.0,16.17,-0.11,0.51,0,*66
1498475295.09,23508,21.63,73946.5,16.19,-0.45,0.25,0,*65
1498475296.3,23509,21.63,73946.8,16.19,-0.45,0.25,0,*64
1498475297.51,23510,21.63,73944.0,16.19,-0.37,0.25,0,*69
1498475298.74,23511,21.63,73946.5,16.21,-0.03,0.71,0,*55
1498475299.94,23512,21.63,73948.5,16.19,0.05,0.87,0,*7F
1498475301.16,23513,21.63,73948.5,16.21,0.09,0.71,0,*70
1498475302.37,23514,21.63,73950.5,16.23,-0.53,0.13,0,*63
1498475303.57,23515,21.63,73948.0,16.23,-0.49,0.25,0,*6C
1498475304.78,23516,21.63,73950.3,16.23,-0.11,0.51,0,*61
1498475305.99,23517,21.56,73942.0,16.27,-2.31,-1.79,0,*42
1498475307.21,23518,21.63,73942.8,16.23,-3.51,-2.91,0,*4B